カタログに戻る

SPEQTRE

運用中科学SSO
NORAD 66769·PAYLOAD·🇸🇬 Singapore

打ち上げ Nov 28, 2025 から Vandenberg Space Force Base

Loading…

次のパス (今後24時間)

TLE

最新Source: Space-Track

元期: Sep 14, 2026, 12:13 UTC

1 66769U 25276DH  26257.50946693  .00003633  00000-0  16617-3 0  9999
2 66769  97.4132 329.9445 0000393  79.0380 281.0900 15.21166948 44012

AllMySatでSPEQTREをリアルタイム追跡

Download on the App Store